[[{"header":{"parameterUnit":"m.s-1","parameterCategory":1,"la1":30.2991,"la2":30.254,"lo1":-89.0895,"lo2":-89.0444,"dx":0.0017,"dy":0.0017,"nx":28,"ny":28,"refTime":"2022-11-21T15:00:00:Z","depth":0,"parameterNumber":2,"parameterNumberName":"U-component_of_WINDS"},"data":[0,0,0,0,0,0,0,0,0,0,0,0,0,0,0,0,0,0,0,0,0,0,0,0,0,0,0,0,0,0,0,0,0,0,0,0,0,0,0,0,0,0,0,0,0,0,0,0,0,0,0,0,0,0,0,0,0,0,-2.9969,-2.9969,0,-2.9998,-2.9999,-2.9999,-2.986,-2.9856,-2.9852,-2.9848,-2.9881,-2.9885,-2.989,0,0,0,0,0,0,0,0,0,0,0,0,0,-2.9792,-2.9796,-2.9969,-2.9969,-2.9969,-2.9998,-2.9999,-2.9999,-2.9861,-2.9856,-2.9851,-2.9846,-2.9879,-2.9885,-2.989,0,0,0,0,0,0,0,0,0,0,0,0,0,-2.985,-2.9797,-2.9969,-2.9904,-2.9898,-2.9998,-2.9999,-2.9999,-2.9862,-2.9856,-2.985,-2.9844,-2.9877,-2.9884,-2.9891,-3.0055,0,0,-2.9912,-2.9915,0,0,0,0,0,0,0,0,-2.9847,-2.9857,-2.9913,-2.9908,-2.9902,-2.9919,-2.9948,-3.0018,-2.9863,-2.9876,-2.9848,-2.9841,-2.9899,-2.9903,-2.9922,-3.0057,-3.0058,-2.9913,-2.9917,-2.992,-2.9922,0,0,0,0,0,0,0,-2.9843,-2.9855,-2.998,-2.9914,-2.9907,-2.9873,-2.9875,-2.9961,-2.9921,-2.9874,-2.9864,-2.9869,-2.9894,-2.9916,-2.9922,-3.0059,-2.9913,-2.9919,-2.9923,-2.9926,-3.0329,-3.0335,0,0,0,0,0,0,-2.9848,-2.9852,-2.9979,-2.9981,-2.9859,-2.9881,-2.9883,-2.992,-2.9919,-2.9914,-2.9875,-2.9863,-2.9907,-2.9914,-2.9923,-3.0115,-2.992,-2.9926,-2.993,-3.0322,-3.033,-3.0337,0,0,0,0,0,0,-2.9844,-2.986,-2.9978,-2.9914,-2.9926,-2.9891,-2.9933,-2.9924,-2.9945,-2.992,-2.9912,-2.9904,-2.9903,-2.9913,-3.0023,-3.0114,-2.993,-2.9936,-3.0315,-3.0325,-3.0334,-3.0502,0,0,0,0,0,0,-2.984,-2.986,-2.9922,-2.9916,-2.993,-3.0079,-2.9939,-2.9929,-2.9957,-2.9942,-2.9945,-2.994,-2.9899,-3.0014,-3.003,-3.0121,-2.9941,-3.0306,-3.0319,-3.0331,-3.0488,-3.0516,-3.0541,0,0,0,0,0,-2.9834,-2.9969,-2.9926,-2.9942,-3.0008,-3.0084,-3.0092,-3.0041,-2.9965,-3.0028,-3.0011,-2.994,-3.0101,-3.0026,-3.0043,-3.0138,-3.03,-3.0316,-3.033,-3.0477,-3.0511,-3.054,0,0,0,0,0,0,-2.9988,-2.9967,-2.9919,-3.0056,-3.0073,-3.0061,-3.0138,-3.0079,-3.0119,-3.0103,-3.0038,-3.004,-3.0162,-3.016,-3.0077,-3.0296,-3.0188,-3.0207,-3.0293,-3.0326,-3.0351,-3.035,-2.9947,0,0,0,0,0,-3.0037,-3.0101,-3.008,-3.0203,-3.0213,-3.0175,-3.0206,-3.0165,-3.018,-3.0187,-3.0178,-3.0196,-3.025,-3.0287,-3.0336,-3.0486,-3.0485,-3.056,-3.0586,-3.0607,-3.0625,-3.0704,-3.0737,-3.0386,-3.0386,-3.0385,0,0,-3.0141,-3.0138,-3.0182,-3.0233,-3.0241,-3.0309,-3.0181,-3.0259,-3.0308,-3.0198,-3.0302,-3.0296,-3.0311,-3.0443,-3.05,-3.0445,-3.0721,-3.0626,-3.0643,-3.0649,-3.0723,-3.0756,-3.0786,-3.0396,-3.0394,-3.0392,0,0,-3.0365,-3.0368,-3.0471,-3.0481,-3.0494,-3.0467,-3.0492,-3.0488,-3.048,-3.0583,-3.0501,-3.0559,-3.0654,-3.0668,-3.0688,-3.0915,-3.0851,-3.0932,-3.107,-3.1148,-3.1175,-3.12,-3.1281,-3.1311,-3.095,-3.095,-3.095,0,-3.0492,-3.0591,-3.0532,-3.0614,-3.0639,-3.0541,-3.0644,-3.0657,-3.0687,-3.0706,-3.0644,-3.076,-3.0763,-3.0896,-3.0952,-3.0971,-3.0997,-3.0933,-3.1176,-3.12,-3.1222,-3.1299,-3.133,-3.096,-3.0959,-3.0958,-3.0957,0,-3.0747,-3.0817,-3.0898,-3.0928,-3.0961,-3.1054,-3.1009,-3.105,-3.1006,-3.0985,-3.1091,-3.109,-3.1137,-3.1165,-3.1123,-3.1292,-3.1258,-3.1187,-3.1077,-3.1266,-3.1337,-3.1366,-3.0974,-3.0971,-3.0968,-3.0965,0,0,-3.1071,-3.1065,-3.1096,-3.1108,-3.1114,-3.1167,-3.1255,-3.1299,-3.1336,-3.1359,-3.1431,-3.1513,-3.1447,-3.1469,-3.1427,-3.1496,-3.1676,-3.1416,-3.1415,-3.1465,-3.1863,-3.1917,-3.1952,-3.1632,-3.1638,-3.1642,-3.1861,0,-3.1291,-3.1441,-3.1389,-3.1542,-3.1605,-3.1512,-3.1588,-3.16,-3.1583,-3.1634,-3.1614,-3.1674,-3.1582,-3.1595,-3.1658,-3.1641,-3.1755,-3.1624,-3.17,-3.1704,-3.1701,-3.1989,-3.2047,-3.2255,-3.1889,-3.1894,-3.1897,0,-3.1568,-3.1601,-3.176,-3.1754,-3.1779,-3.1849,-3.1885,-3.1935,-3.1947,-3.1929,-3.1953,-3.1896,-3.1982,-3.187,-3.1987,-3.1899,-3.1927,-3.1923,-3.193,-3.1936,-3.1813,-3.2005,-3.2319,-3.2351,-3.194,-3.1937,-3.1934,0,-3.179,-3.1874,-3.1979,-3.1992,-3.1988,-3.2039,-3.204,-3.2045,-3.2075,-3.2107,-3.2125,-3.2167,-3.219,-3.2223,-3.2179,-3.2102,-3.2303,-3.2188,-3.2291,-3.2293,-3.234,-3.2338,-3.2664,-3.2356,-3.2355,-3.2354,-3.2354,0,-3.2042,-3.2143,-3.2079,-3.2144,-3.2254,-3.2193,-3.2304,-3.2294,-3.2299,-3.2361,-3.2282,-3.2342,-3.2279,-3.2333,-3.2298,-3.24,-3.2411,-3.24,-3.239,-3.2408,-3.241,-3.2426,-3.2411,-3.2363,-3.2361,-3.2359,-3.2358,0,-3.2309,-3.227,-3.2379,-3.2366,-3.2364,-3.2447,-3.2435,-3.2495,-3.247,-3.255,-3.2564,-3.2527,-3.2586,-3.2544,-3.2604,-3.258,-3.2715,-3.2684,-3.2711,-3.2704,-3.281,-3.2801,-3.316,-3.3204,-3.2866,-3.2869,-3.2872,0,-3.2474,-3.2549,-3.2543,-3.2578,-3.2584,-3.2642,-3.2671,-3.2613,-3.2648,-3.2665,-3.2723,-3.2775,-3.2814,-3.2912,-3.2891,-3.2935,-3.2905,-3.3028,-3.2912,-3.2927,-3.2908,-3.2905,-3.2912,-3.3052,-3.3056,-3.306,-3.3062,0,-3.277,-3.2746,-3.2791,-3.283,-3.2867,-3.2895,-3.2917,-3.295,-3.2891,-3.2934,-3.2992,-3.3022,-3.3081,-3.3134,-3.317,-3.317,-3.3108,-3.3099,-3.3125,-3.3145,-3.3158,-3.3153,-3.2777,-3.3091,-3.3088,-3.3086,-3.3085,-3.3084,-3.2991,-3.3054,-3.3059,-3.3112,-3.3121,-3.3143,-3.3198,-3.318,-3.3228,-3.3272,-3.3234,-3.3305,-3.3313,-3.3354,-3.3362,-3.3417,-3.3366,-3.3405,-3.3415,-3.3425,-3.3441,-3.3148,-3.3423,-3.3422,-3.3421,-3.342,-3.342,0,-3.3284,-3.3282,-3.3331,-3.3363,-3.3405,-3.3339,-3.3359,-3.3399,-3.3462,-3.3474,-3.3513,-3.358,-3.363,-3.3612,-3.3656,-3.3703,-3.3676,-3.3717,-3.3714,-3.3715,-3.3483,-3.3456,-3.3739,-3.3739,-3.3739,-3.3739,-3.3739,-3.3739,-3.3441,-3.3543,-3.352,-3.3626,-3.3623,-3.3691,-3.3708,-3.3727,-3.3737,-3.3815,-3.3856,-3.3843,-3.3843,-3.3886,-3.3929,-3.3922,-3.3943,-3.3996,-3.3979,-3.3763,-3.3731,-3.3701,-3.3676,-3.4,-3.4001,-3.4206,-3.4208,-3.4209]},{"header":{"parameterUnit":"m.s-1","parameterCategory":1,"la1":30.2991,"la2":30.254,"lo1":-89.0895,"lo2":-89.0444,"dx":0.0017,"dy":0.0017,"nx":28,"ny":28,"refTime":"2022-11-21T15:00:00:Z","depth":0,"parameterNumber":3,"parameterNumberName":"V-component_of_WINDS"},"data":[0,0,0,0,0,0,0,0,0,0,0,0,0,0,0,0,0,0,0,0,0,0,0,0,0,0,0,0,0,0,0,0,0,0,0,0,0,0,0,0,0,0,0,0,0,0,0,0,0,0,0,0,0,0,0,0,0,0,-4.8205,-4.8205,0,-4.8219,-4.8219,-4.8219,-4.8121,-4.8118,-4.8115,-4.8113,-4.8126,-4.8129,-4.8131,0,0,0,0,0,0,0,0,0,0,0,0,0,-4.8092,-4.8095,-4.8205,-4.8206,-4.8206,-4.8219,-4.8219,-4.8219,-4.8121,-4.8118,-4.8115,-4.8111,-4.8125,-4.8128,-4.8132,0,0,0,0,0,0,0,0,0,0,0,0,0,-4.8127,-4.8096,-4.8205,-4.8158,-4.8154,-4.8219,-4.8219,-4.8219,-4.8122,-4.8118,-4.8114,-4.811,-4.8124,-4.8128,-4.8132,-4.8242,0,0,-4.8146,-4.8147,0,0,0,0,0,0,0,0,-4.8126,-4.8132,-4.8165,-4.8162,-4.8157,-4.8164,-4.8184,-4.8227,-4.8123,-4.8134,-4.8113,-4.8108,-4.8142,-4.8144,-4.8156,-4.8243,-4.8243,-4.8146,-4.8149,-4.815,-4.8152,0,0,0,0,0,0,0,-4.8123,-4.813,-4.8211,-4.8166,-4.8161,-4.8136,-4.8136,-4.8192,-4.8161,-4.8133,-4.8126,-4.8129,-4.8139,-4.8152,-4.8155,-4.8243,-4.8146,-4.815,-4.8152,-4.8154,-4.8418,-4.8422,0,0,0,0,0,0,-4.8127,-4.8129,-4.821,-4.8211,-4.8131,-4.8141,-4.8142,-4.8166,-4.816,-4.8155,-4.8132,-4.8124,-4.8146,-4.8151,-4.8156,-4.8282,-4.815,-4.8155,-4.8157,-4.8414,-4.8419,-4.8424,0,0,0,0,0,0,-4.8125,-4.8136,-4.821,-4.8168,-4.8176,-4.8148,-4.8176,-4.8168,-4.8181,-4.816,-4.8154,-4.8152,-4.8143,-4.8149,-4.8221,-4.8281,-4.8157,-4.816,-4.8409,-4.8415,-4.8421,-4.8536,0,0,0,0,0,0,-4.8123,-4.8135,-4.8178,-4.817,-4.8178,-4.8276,-4.8179,-4.8172,-4.8189,-4.8179,-4.8176,-4.8172,-4.8141,-4.8215,-4.8225,-4.8285,-4.8164,-4.8403,-4.8412,-4.8419,-4.8527,-4.8546,-4.8562,0,0,0,0,0,-4.8119,-4.821,-4.818,-4.819,-4.823,-4.8279,-4.8284,-4.8247,-4.8195,-4.8236,-4.8222,-4.8172,-4.8273,-4.8223,-4.8234,-4.8295,-4.8399,-4.8409,-4.8419,-4.8519,-4.8542,-4.8562,0,0,0,0,0,0,-4.8225,-4.8208,-4.8175,-4.8266,-4.8275,-4.8263,-4.8314,-4.8273,-4.8296,-4.8285,-4.8238,-4.8238,-4.8317,-4.8313,-4.8258,-4.84,-4.8327,-4.8339,-4.8399,-4.8421,-4.8438,-4.8437,-4.8168,0,0,0,0,0,-4.826,-4.8301,-4.8283,-4.8366,-4.8372,-4.8342,-4.8362,-4.8333,-4.8339,-4.8343,-4.8334,-4.8342,-4.8375,-4.8398,-4.8428,-4.8526,-4.8523,-4.8574,-4.8592,-4.8606,-4.8617,-4.8667,-4.8688,-4.8456,-4.8456,-4.8456,0,0,-4.833,-4.8326,-4.8355,-4.8387,-4.839,-4.8433,-4.8346,-4.8396,-4.8427,-4.835,-4.8416,-4.841,-4.8416,-4.8501,-4.8538,-4.85,-4.8681,-4.8619,-4.8631,-4.8634,-4.8679,-4.8701,-4.8721,-4.8463,-4.8462,-4.8461,0,0,-4.8481,-4.8483,-4.855,-4.8555,-4.8561,-4.854,-4.8557,-4.855,-4.8543,-4.8609,-4.8551,-4.8588,-4.8647,-4.8653,-4.8664,-4.8815,-4.8769,-4.8826,-4.8918,-4.8967,-4.8985,-4.9001,-4.9053,-4.9072,-4.8838,-4.8838,-4.8838,0,-4.8568,-4.8631,-4.859,-4.8643,-4.8658,-4.859,-4.8657,-4.8664,-4.8679,-4.8691,-4.8649,-4.872,-4.872,-4.8804,-4.8841,-4.8852,-4.8868,-4.8826,-4.8986,-4.9001,-4.9016,-4.9064,-4.9084,-4.8845,-4.8844,-4.8843,-4.8842,0,-4.8737,-4.8781,-4.8835,-4.8851,-4.8872,-4.8932,-4.8899,-4.8925,-4.8893,-4.8877,-4.8944,-4.8941,-4.8968,-4.8986,-4.8956,-4.9065,-4.9042,-4.8994,-4.8919,-4.9045,-4.909,-4.9109,-4.8854,-4.8852,-4.885,-4.8848,0,0,-4.8955,-4.8946,-4.8966,-4.8972,-4.8973,-4.9006,-4.9062,-4.9088,-4.911,-4.9123,-4.9168,-4.9219,-4.9174,-4.9187,-4.9157,-4.92,-4.9317,-4.9146,-4.9145,-4.9176,-4.9435,-4.947,-4.9493,-4.9288,-4.9291,-4.9294,-4.9434,0,-4.91,-4.9195,-4.9159,-4.9257,-4.9296,-4.9232,-4.9281,-4.9286,-4.9272,-4.9303,-4.9288,-4.9324,-4.9263,-4.927,-4.931,-4.9295,-4.9368,-4.9284,-4.9327,-4.9329,-4.9326,-4.9516,-4.9554,-4.9686,-4.9452,-4.9455,-4.9457,0,-4.9282,-4.9301,-4.9403,-4.9395,-4.941,-4.9454,-4.9474,-4.9505,-4.9509,-4.9496,-4.951,-4.947,-4.9523,-4.945,-4.9522,-4.9465,-4.9481,-4.9476,-4.948,-4.9481,-4.94,-4.9521,-4.9728,-4.9747,-4.9485,-4.9482,-4.948,0,-4.9428,-4.948,-4.9546,-4.9553,-4.9546,-4.9578,-4.9577,-4.9577,-4.9594,-4.9612,-4.9622,-4.9646,-4.9659,-4.9678,-4.9645,-4.9595,-4.9721,-4.9646,-4.9711,-4.9712,-4.9739,-4.9737,-4.9949,-4.9753,-4.9752,-4.9752,-4.9752,0,-4.9593,-4.9657,-4.9611,-4.9652,-4.9721,-4.9679,-4.9748,-4.974,-4.974,-4.9778,-4.9724,-4.9761,-4.9716,-4.9748,-4.9723,-4.9785,-4.9792,-4.9782,-4.9774,-4.9785,-4.9786,-4.9793,-4.9783,-4.9757,-4.9756,-4.9755,-4.9754,0,-4.9767,-4.9739,-4.9807,-4.9794,-4.9793,-4.9844,-4.9833,-4.987,-4.9852,-4.99,-4.9908,-4.9881,-4.9915,-4.9885,-4.9918,-4.9901,-4.9983,-4.9963,-4.9982,-4.9975,-5.0041,-5.0035,-5.0263,-5.029,-5.0079,-5.0081,-5.0083,0,-4.9873,-4.992,-4.9912,-4.9933,-4.9935,-4.997,-4.9987,-4.9947,-4.9967,-4.9974,-5.001,-5.0039,-5.0061,-5.0119,-5.0101,-5.0126,-5.0105,-5.0183,-5.0108,-5.0117,-5.0103,-5.01,-5.0103,-5.0198,-5.02,-5.0203,-5.0204,0,-5.0063,-5.0046,-5.0073,-5.0095,-5.0116,-5.0131,-5.0142,-5.0163,-5.0121,-5.0146,-5.018,-5.0197,-5.023,-5.026,-5.0279,-5.0276,-5.0233,-5.0228,-5.0244,-5.0255,-5.0263,-5.0257,-5.0021,-5.0223,-5.0221,-5.022,-5.0219,-5.0218,-5.0205,-5.0243,-5.0243,-5.0273,-5.0277,-5.0288,-5.0321,-5.0307,-5.0335,-5.0359,-5.0334,-5.0375,-5.0376,-5.0397,-5.04,-5.0431,-5.0398,-5.0422,-5.0427,-5.0433,-5.0442,-5.026,-5.0435,-5.0434,-5.0434,-5.0433,-5.0433,0,-5.039,-5.0386,-5.0415,-5.0431,-5.0455,-5.0413,-5.0422,-5.0445,-5.0481,-5.0487,-5.0508,-5.0547,-5.0575,-5.056,-5.0584,-5.0611,-5.0592,-5.0619,-5.0615,-5.0615,-5.0471,-5.0454,-5.0634,-5.0634,-5.0634,-5.0634,-5.0634,-5.0634,-5.0489,-5.0551,-5.0534,-5.0596,-5.0592,-5.0631,-5.064,-5.065,-5.0653,-5.0698,-5.0721,-5.0711,-5.0707,-5.073,-5.0754,-5.0749,-5.0759,-5.0793,-5.078,-5.0645,-5.0626,-5.0607,-5.059,-5.0796,-5.0796,-5.0921,-5.0922,-5.0923]}]]